Location: Hagenbach
(49.2390°N, 9.2275°E)
Time: 07:17:10
(UTC+00:00)

Daily predictions for brighter satellites

Satellite Brightness Start Highest point End
(mag) Time Altitude Azimuth Time Altitude Azimuth Time Altitude Azimuth
Ariane Rocket 3.9 19:53:50 10° SE 19:58:20 34° ENE 20:02:51 10° N
CZ-4C R/B 3.1 19:56:19 10° SSE 19:59:17 18° ESE 20:02:40 10° ENE
CZ-4B R/B 3.1 19:56:08 10° S 19:59:42 61° WSW 20:03:26 10° NNW
Okean 2 Rocket 3.6 19:56:47 10° N 20:00:58 42° ENE 20:05:07 10° SE
CZ-4B R/B 4.0 19:57:21 10° S 20:02:32 65° WSW 20:07:40 10° NNW
Cosmos 1869 3.3 19:59:59 10° N 20:03:30 53° ENE 20:06:59 10° SSE
Cosmos 1777 Rocket 4.1 20:01:57 10° S 20:07:04 59° ESE 20:12:11 10° NNE
Cosmos 2151 Rocket 3.8 20:03:20 10° N 20:07:50 61° ENE 20:12:16 10° SSE
BREEZE-M DEB (TANK) 3.5 20:06:28 10° S 20:08:16 17° SE 20:11:01 10° E
NOSS 3-3 (C) 4.4 20:04:18 10° SW 20:09:40 66° NW 20:16:08 10° NE
Cosmos 44 4.2 20:07:33 10° SSE 20:10:55 23° ESE 20:14:21 10° ENE
Lacrosse 5 rocket 3.3 20:10:14 10° WNW 20:13:36 27° N 20:17:00 10° NE
Cosmos 2242 Rocket 4.0 20:10:26 10° SSW 20:14:47 66° WNW 20:19:10 10° N
Okean 1 Rocket 3.5 20:10:56 10° N 20:15:10 45° ENE 20:19:19 10° SSE
Helios 1B rocket 2.9 20:13:38 10° S 20:17:13 50° W 20:20:50 10° NNW
Helios 1A 2.8 20:13:47 10° NNE 20:17:43 66° ESE 20:21:38 10° S
Meteor PRIRODA 4.2 20:15:57 10° S 20:18:37 40° W 20:21:20 10° NNW
Cosmos 2221 Rocket 4.0 20:16:29 10° SSE 20:20:46 45° E 20:25:06 10° NNE
TSX-5 4.0 20:19:24 10° NW 20:22:25 47° WSW 20:25:40 10° SSE
Gbstr 26 Del rocket 3.9 20:18:49 10° W 20:23:33 66° N 20:29:25 10° E
Terra 2.3 20:20:30 10° S 20:25:09 60° WSW 20:29:50 10° NNW
NOSS 3-4 (A) 4.0 20:18:34 10° NW 20:25:19 75° SW 20:33:06 11° SSE
NOSS 3-4 (C) 4.0 20:18:36 10° NW 20:25:22 76° SW 20:33:06 11° SSE
Cosmos 1455 Rocket 4.1 20:22:51 10° N 20:26:40 30° ENE 20:30:04 12° SE
SPOT 3 Rocket 3.7 20:23:38 10° SSE 20:28:46 65° ENE 20:33:56 10° N
Spot 2 Rocket 3.6 20:27:56 10° S 20:33:01 78° WSW 20:38:08 10° NNW
Sich 1 Rocket 3.6 20:28:42 10° N 20:33:18 77° E 20:37:45 10° SSE
IRS-1C Rocket 4.1 20:32:30 10° SSE 20:37:45 87° ENE 20:43:03 10° NNW
Cosmos 1818 3.7 20:32:39 10° NW 20:38:07 76° SW 20:42:53 14° SSE
ATLAS 5 CENTAUR R/B 4.4 20:37:44 10° NNW 20:38:49 11° N 20:39:57 10° N
Cosmos 1674 Rocket 3.6 20:34:36 10° S 20:39:02 86° WNW 20:43:30 10° N
Cosmos 1833 4.2 20:34:00 10° NNW 20:39:44 85° ENE 20:44:42 14° SSE
Cosmos 1538 Rocket 4.4 20:38:05 10° NNW 20:43:23 54° ENE 20:47:45 15° SE
ERS-1 Rocket 4.3 20:39:55 10° SSW 20:44:32 37° W 20:49:10 10° NNW
USA 245 3.8 20:41:11 10° S 20:45:19 54° WSW 20:48:40 10° NNW
IKONOS-2 4.4 20:42:25 10° NNE 20:46:35 79° ESE 20:50:41 10° S
Meteor 1-21 Rocket 4.5 20:43:25 10° SSW 20:49:03 73° WNW 20:54:39 10° N
Cosmos 2297 3.9 20:43:40 10° SSW 20:49:19 76° WNW 20:55:02 10° NNE
PSLV R/B 3.4 20:49:19 19° SSE 20:51:26 59° ENE 20:54:31 10° N
Cosmos 1812 2.2 20:48:29 10° N 20:51:38 66° E 20:53:43 19° SSE
Okean-O 4.2 20:47:51 10° SSW 20:51:46 32° W 20:55:44 10° NNW
Meteor 1-11 4.3 20:47:14 10° S 20:53:02 76° E 20:58:50 10° NNE
Meteor 2-1 Rocket 4.3 20:50:58 10° N 20:56:52 81° ENE 21:01:41 15° SSE
Okean O Rocket 3.8 20:55:15 10° SW 20:58:38 22° W 21:02:03 10° NW
BlueWalker 3 2.7 20:55:12 10° WNW 20:58:46 48° N 21:02:20 10° E
Cosmos 1025 Rocket 3.1 20:55:13 10° S 20:59:33 83° W 21:03:57 10° N
Cosmos 990 Rocket 3.9 20:54:28 10° SSW 20:59:37 78° ESE 21:04:51 10° NNE
Aureole 1 Rocket 4.4 21:03:24 11° S 21:09:35 54° ESE 21:16:48 10° NNE
RESURS DK-1 3.8 21:10:57 10° N 21:14:24 27° NE 21:17:10 14° ESE
Cosmos 372 Rocket 4.2 21:14:58 17° S 21:18:44 49° ESE 21:23:38 10° NNE
USA 215 4.1 21:14:47 10° E 21:21:04 51° NNE 21:27:21 10° WNW
DNEPR-1 R/B 3.5 21:17:41 10° NW 21:21:57 80° NE 21:24:32 23° SE
Cosmos 2369 Rocket 3.3 21:19:15 10° SW 21:24:44 46° NW 21:30:13 10° NNE
Cosmos 1400 Rocket 4.1 21:23:24 10° N 21:26:41 26° ENE 21:28:20 19° ESE
ASTEX 1 4.3 21:22:04 10° N 21:26:43 47° WNW 21:31:22 10° SSW
Meteor 1-27 4.3 21:24:17 10° N 21:30:04 73° ENE 21:33:45 23° SSE
Cosmos 2297 Rocket 3.1 21:30:01 10° NNW 21:35:20 40° NE 21:39:27 16° ESE
ISS -3.9 21:32:45 10° WNW 21:36:06 89° SSW 21:37:42 29° ESE
COBE Rocket 3.9 21:31:58 10° N 21:36:38 73° WNW 21:40:36 14° SSW
DELTA 2 R/B (1) 4.3 21:32:12 10° SW 21:36:55 29° S 21:38:42 24° SE
Cosmos 1937 Rocket 3.8 21:34:18 23° SSE 21:37:09 47° ESE 21:42:03 10° NNE
Ariane Rocket 4.1 21:32:58 13° SSW 21:37:10 38° W 21:41:52 10° NNW
Cosmos 1680 Rocket 4.0 21:34:11 10° NNW 21:39:21 53° ENE 21:42:31 23° SE
Cosmos 2098 Rocket 2.5 21:36:12 10° N 21:39:25 67° E 21:40:46 34° SSE
CZ-4C R/B 2.1 21:42:12 10° SW 21:46:36 71° NW 21:52:18 10° NE
ALOS 2 4.1 21:44:36 17° ESE 21:46:54 26° ENE 21:50:34 10° N
Cosmos 1627 Rocket 4.5 21:42:35 16° S 21:47:40 83° W 21:53:49 10° N
Cosmos 381 Rocket 4.5 21:41:54 10° NNW 21:48:16 84° WSW 21:52:07 25° SSE
Cosmos 1515 4.4 21:48:25 10° NW 21:50:38 25° W 21:51:23 21° WSW
Cosmos 923 Rocket 3.9 21:45:31 10° NNW 21:50:45 84° ENE 21:53:32 28° SSE
Cosmos 1697 Rocket 4.3 21:50:21 16° ESE 21:51:33 17° E 21:55:06 10° ENE
Cosmos 44 3.8 21:47:25 10° SW 21:51:39 54° NW 21:56:02 10° NNE
Lacrosse 5 rocket 3.1 21:48:19 10° NW 21:51:49 30° NNE 21:55:19 10° ENE
Cosmos 1975 Rocket 3.2 21:53:28 21° SSW 21:56:16 68° WNW 22:00:34 10° N
MetOp-A 3.8 21:55:24 30° ESE 21:56:48 45° ENE 22:00:26 10° N
Cosmos 2228 3.0 21:57:05 10° NNW 22:01:18 72° W 22:03:10 32° S
Cosmos 1455 Rocket 4.5 22:00:34 10° NNW 22:04:21 30° W 22:07:03 16° SW
Cosmos 2227 Rocket 3.4 22:02:51 10° NNW 22:08:03 35° NE 22:12:20 14° ESE
Cosmos 1867 3.6 22:03:41 10° SW 22:09:09 86° NW 22:14:40 10° NE
Gbstr 26 Del rocket 3.6 22:05:04 10° WNW 22:10:21 80° SSW 22:15:20 18° ESE
Meteor 2-20 4.5 22:04:12 10° NNW 22:10:22 78° W 22:13:55 27° S
BREEZE M DEB (TANK) 3.2 22:07:52 10° WSW 22:10:09 31° SW 22:10:09 31° SW
Cosmos 494 Rocket 4.3 22:06:51 10° NNW 22:12:01 59° ENE 22:14:39 28° SE
BREEZE-M DEB (TANK) 2.9 22:09:15 10° W 22:17:09 86° N 22:19:47 12° E
Cosmos 1898 Rocket 4.0 22:16:18 13° SW 22:20:56 60° WNW 22:26:09 10° NNE
CZ-2C R/B 3.7 22:16:53 10° NNE 22:21:39 77° ESE 22:23:40 34° S
Cosmos 2266 Rocket 4.3 22:19:20 29° SSE 22:22:34 57° E 22:28:51 10° NNE
ATLAS 5 CENTAUR R/B 4.5 22:21:26 10° NNW 22:23:19 13° NNE 22:25:21 10° NE
Spot 4 3.9 22:21:20 34° SSE 22:23:24 73° ENE 22:28:13 10° N
Landsat 5 3.5 22:25:35 10° NNE 22:29:16 49° E 22:29:50 44° SE
ARIANE 5 R/B 2.7 22:30:39 38° S 22:32:16 71° WSW 22:36:43 10° NNW
Cosmos 1553 Rocket 4.3 22:26:11 10° NNW 22:32:21 63° W 22:35:55 27° SSW
Cosmos 2315 Rocket 4.4 22:26:39 10° N 22:32:57 56° ENE 22:36:19 28° SE
BlueWalker 3 1.7 22:32:57 10° WNW 22:36:35 65° SSW 22:36:56 60° S
Cosmos 1315 Rocket 4.3 22:34:18 10° NNE 22:37:31 25° ENE 22:38:48 21° E
SL-08 ROCKET BODY 4.3 22:36:28 29° SSW 22:39:44 83° W 22:45:39 10° N
CZ-4C R/B 3.8 22:41:43 10° N 22:45:16 50° WNW 22:46:38 32° SW
Cosmos 1933 3.9 22:43:06 10° N 22:46:50 43° ENE 22:47:44 36° ESE
ATLAS 2AS CENTAUR R/B 3.5 22:42:53 10° NW 22:49:28 48° NE 22:55:55 10° ESE
Cosmos 1536 Rocket 3.7 22:48:20 38° SSW 22:49:56 70° W 22:54:22 10° N
Cosmos 1656 3.8 22:47:10 21° SW 22:50:58 72° WNW 22:56:31 10° NNE
Cosmos 1417 Rocket 4.5 22:45:34 10° NNW 22:51:42 74° W 22:54:39 32° S
RESURS DK-1 3.0 22:48:16 10° NW 22:51:57 37° WSW 22:52:29 35° SW
S3M 4.0 22:47:01 10° N 22:53:23 84° W 22:56:23 33° S
Cosmos 2263 Rocket 3.2 22:50:16 10° NNW 22:55:37 41° NE 22:59:46 16° ESE
Cosmos 1606 Rocket 3.5 22:53:13 10° NNW 22:57:36 83° W 22:58:50 47° S
Cosmos 1400 Rocket 4.1 22:58:57 10° NW 23:02:12 27° W 23:03:02 25° WSW
Cosmos 2058 3.0 23:01:15 42° SW 23:02:19 61° WNW 23:06:15 10° N
USA 215 3.2 22:58:07 14° ESE 23:03:50 88° SSW 23:10:26 10° WNW
Cosmos 1602 3.2 23:07:46 73° E 23:07:46 73° E 23:10:56 10° NNE
Cosmos 1782 3.2 23:05:25 10° NNW 23:08:55 43° W 23:09:26 40° WSW
ISS -1.4 23:09:50 10° W 23:10:32 14° W 23:10:32 14° W
Cosmos 1655 Rocket 4.0 23:09:38 34° S 23:12:39 76° E 23:19:01 10° NNE
Cosmos 1862 3.1 23:18:17 59° SW 23:18:49 72° W 23:22:29 10° N
Cosmos 2297 Rocket 2.8 23:14:08 10° NW 23:19:24 41° WSW 23:21:13 32° SSW
Cosmos 2219 3.9 23:15:14 10° NNW 23:20:46 50° NE 23:24:45 18° SE
Cosmos 1726 Rocket 3.8 23:16:14 10° NNW 23:20:49 66° W 23:22:11 44° SSW
Dummy Sat-02 4.4 23:22:12 69° S 23:22:37 89° E 23:26:15 10° N
Cosmos 2058 Rocket 3.2 23:18:11 10° N 23:22:39 69° E 23:23:59 43° SSE
PSLV R/B 3.8 23:18:10 10° N 23:22:51 75° WNW 23:24:32 39° SSW
ALOS 2 3.4 23:22:00 33° SW 23:23:04 39° W 23:27:13 10° NNW
Lacrosse 5 rocket 1.2 23:25:42 10° NW 23:29:38 80° NNE 23:31:05 37° ESE
Cosmos 1980 Rocket 2.7 23:28:23 34° SSE 23:30:08 44° ESE 23:35:27 10° NE
Orbus 7S? 4.4 23:29:20 37° SSE 23:30:19 42° ESE 23:38:06 10° ENE
Cosmos 468 4.5 23:28:00 10° NNW 23:33:22 83° WSW 23:35:25 39° SSE
Cosmos 1356 Rocket 3.4 23:30:33 10° NNW 23:34:33 64° W 23:35:17 52° SSW
Cosmos 1697 Rocket 2.7 23:32:02 33° SSW 23:34:44 86° WNW 23:40:27 10° NNE
CZ-4C R/B 4.4 23:31:46 10° WNW 23:35:59 25° NNW 23:41:10 10° NE
CZ-2C R/B 3.4 23:36:52 22° SE 23:40:16 49° ENE 23:45:40 10° N
Spot 1 4.4 23:35:39 10° N 23:40:24 66° WNW 23:42:05 37° SW
Cosmos 1892 Rocket 3.7 23:39:40 43° SW 23:40:52 64° WNW 23:45:09 10° N
PSLV R/B 3.7 23:38:54 10° NNE 23:42:53 83° WNW 23:43:44 54° SSW
Cosmos 1441 Rocket 3.0 23:44:49 59° WSW 23:45:10 64° WNW 23:48:37 10° N
GEOS 3 Rocket 3.7 23:43:15 10° NE 23:48:32 77° NW 23:51:46 24° SW
Cosmos 1758 Rocket 4.3 23:47:54 34° SE 23:49:10 43° E 23:53:24 10° NNE
Meteor 2-3 Rocket 3.8 23:46:45 35° SSW 23:49:20 79° WNW 23:55:08 10° N
Cosmos 1626 Rocket 3.9 23:49:13 41° SSE 23:50:24 56° E 23:54:44 10° NNE
CENTAUR R/B 4.3 23:49:44 11° SE 23:51:51 13° ESE 23:54:31 10° ENE
Cosmos 2227 Rocket 2.6 23:46:49 10° NW 23:52:16 48° WSW 23:54:06 35° SSW
